Time[GMT],gps_lon[degrees_west](-3m),gps_lat[degrees_north](-3m)
2004-04-28 00:07,-69.357353210,43.71
2004-04-28 01:07,-69.357368469,43.71
2004-04-28 02:07,-69.357414246,43.71
2004-04-28 03:07,-69.357414246,43.71
2004-04-28 04:07,-69.357498169,43.71
2004-04-28 05:07,-69.357498169,43.71
2004-04-28 06:07,-69.357330322,43.71
2004-04-28 07:07,-69.357437134,43.71
2004-04-28 08:07,-69.357437134,43.71
2004-04-28 09:07,-69.357498169,43.71
2004-04-28 10:07,-69.357414246,43.71
2004-04-28 11:07,-69.357414246,43.71
2004-04-28 12:07,-69.357383728,43.71
2004-04-28 13:07,-69.357383728,43.71
2004-04-28 14:07,-69.357414246,43.71
2004-04-28 15:07,-69.357398987,43.71
2004-04-28 16:07,-69.357368469,43.71
2004-04-28 17:07,-69.357299805,43.71
2004-04-28 18:07,-69.357200623,43.71
2004-04-28 19:07,-69.357086182,43.71
2004-04-28 20:07,-69.357017517,43.71
2004-04-28 21:07,-69.357017517,43.71
2004-04-28 22:07,-69.357032776,43.71
2004-04-28 23:07,-69.357048035,43.71
2004-04-29 00:07,-69.357086182,43.71
2004-04-29 01:07,-69.357131958,43.71
2004-04-29 02:07,-69.357231140,43.71
2004-04-29 03:07,-69.357185364,43.71
2004-04-29 04:07,-69.357185364,43.71
2004-04-29 05:07,-69.357231140,43.71
2004-04-29 06:07,-69.357246399,43.71
2004-04-29 07:07,-69.357246399,43.71
2004-04-29 08:07,-69.357231140,43.71
2004-04-29 09:07,-69.357147217,43.71
2004-04-29 10:07,-69.357116699,43.71
2004-04-29 11:07,-69.357131958,43.71
2004-04-29 12:07,-69.357101440,43.71
2004-04-29 13:07,-69.357048035,43.71
2004-04-29 14:07,-69.357048035,43.71
2004-04-29 15:07,-69.357063293,43.71
2004-04-29 16:07,-69.357032776,43.71
2004-04-29 17:07,-69.356987000,43.71
2004-04-29 18:07,-69.356933594,43.71
2004-04-29 19:07,-69.356903076,43.71
2004-04-29 20:07,-69.356964111,43.71
2004-04-29 21:07,-69.356948853,43.71
2004-04-29 22:07,-69.357032776,43.71
2004-04-29 23:07,-69.357002258,43.71
2004-04-30 00:07,-69.357017517,43.71
2004-04-30 01:07,-69.356964111,43.71
2004-04-30 02:07,-69.356849670,43.71
2004-04-30 03:07,-69.356819153,43.71
2004-04-30 04:07,-69.356697083,43.71
2004-04-30 05:07,-69.356666565,43.71
2004-04-30 06:07,-69.356681824,43.71
2004-04-30 07:07,-69.356666565,43.71
2004-04-30 08:07,-69.356735229,43.71
2004-04-30 09:07,-69.356796265,43.71
2004-04-30 10:07,-69.356834412,43.71
2004-04-30 11:07,-69.356933594,43.71
2004-04-30 12:07,-69.356933594,43.71
2004-04-30 13:07,-69.356964111,43.71
2004-04-30 14:07,-69.356948853,43.71
2004-04-30 15:07,-69.356903076,43.71
2004-04-30 16:07,-69.356864929,43.71
2004-04-30 17:07,-69.356849670,43.71
2004-04-30 18:07,-69.356834412,43.71
2004-04-30 19:07,-69.356796265,43.71
2004-04-30 20:07,-69.356834412,43.71
2004-04-30 21:07,-69.356819153,43.71
2004-04-30 22:07,-69.356781006,43.71
2004-04-30 23:07,-69.356765747,43.71
2004-05-01 00:07,-69.356765747,43.71
2004-05-01 01:07,-69.356750488,43.71
2004-05-01 02:07,-69.356735229,43.71
2004-05-01 03:07,-69.356719971,43.71
2004-05-01 04:07,-69.356750488,43.71
2004-05-01 05:07,-69.356697083,43.71
2004-05-01 06:07,-69.356819153,43.71
2004-05-01 07:07,-69.356849670,43.71
2004-05-01 08:07,-69.356903076,43.71
2004-05-01 09:07,-69.356864929,43.71
2004-05-01 10:07,-69.356918335,43.71
2004-05-01 11:07,-69.356918335,43.71
2004-05-01 12:07,-69.356933594,43.71
2004-05-01 13:07,-69.356903076,43.71
2004-05-01 14:07,-69.356918335,43.71
2004-05-01 15:07,-69.356864929,43.71
2004-05-01 16:07,-69.356750488,43.71
2004-05-01 17:07,-69.356735229,43.71
2004-05-01 18:07,-69.356681824,43.71
2004-05-01 19:07,-69.356765747,43.71
2004-05-01 20:07,-69.356819153,43.71
2004-05-01 21:07,-69.356849670,43.71
2004-05-01 22:07,-69.356819153,43.71
2004-05-01 23:07,-69.356903076,43.71
2004-05-02 00:07,-69.356849670,43.71
2004-05-02 01:07,-69.356834412,43.71
2004-05-02 02:07,-69.356781006,43.71
2004-05-02 03:07,-69.356666565,43.71
2004-05-02 04:07,-69.356636047,43.71
2004-05-02 05:07,-69.356613159,43.71
2004-05-02 06:07,-69.356613159,43.71
2004-05-02 07:07,-69.356666565,43.71
2004-05-02 08:07,-69.356719971,43.71
2004-05-02 09:07,-69.356781006,43.71
2004-05-02 10:07,-69.356819153,43.71
2004-05-02 11:07,-69.356903076,43.71
2004-05-02 12:07,-69.356933594,43.71
2004-05-02 13:07,-69.356987000,43.71
2004-05-02 14:07,-69.356918335,43.71
2004-05-02 15:07,-69.356880188,43.71
2004-05-02 16:07,-69.356849670,43.71
2004-05-02 17:07,-69.356765747,43.71
2004-05-02 18:07,-69.356697083,43.71
2004-05-02 19:07,-69.356697083,43.71
2004-05-02 20:07,-69.356666565,43.71
2004-05-02 21:07,-69.356651306,43.71
2004-05-02 22:07,-69.356697083,43.71
2004-05-02 23:07,-69.356750488,43.71
2004-05-03 00:07,-69.356864929,43.71
2004-05-03 01:07,-69.357002258,43.71
2004-05-03 02:07,-69.357032776,43.71
2004-05-03 03:07,-69.357048035,43.71
2004-05-03 04:07,-69.357017517,43.71
2004-05-03 05:07,-69.356918335,43.71
2004-05-03 06:07,-69.356880188,43.71
2004-05-03 07:07,-69.356819153,43.71
2004-05-03 08:07,-69.356796265,43.71
2004-05-03 09:07,-69.356750488,43.71
2004-05-03 10:07,-69.356765747,43.71
2004-05-03 11:07,-69.356819153,43.71
2004-05-03 12:07,-69.356750488,43.71
2004-05-03 13:07,-69.356849670,43.71
2004-05-03 14:07,-69.356834412,43.71
2004-05-03 15:07,-69.356849670,43.71
2004-05-03 16:07,-69.356987000,43.71
2004-05-03 17:07,-69.356987000,43.71
2004-05-03 18:07,-69.357032776,43.71
2004-05-03 19:07,-69.357048035,43.71
2004-05-03 20:07,-69.356933594,43.71
2004-05-03 21:07,-69.357017517,43.71
2004-05-03 22:07,-69.356964111,43.71
2004-05-03 23:07,-69.357002258,43.71
2004-05-04 00:07,-69.357086182,43.71
2004-05-04 01:07,-69.357185364,43.71
2004-05-04 02:07,-69.357116699,43.71
2004-05-04 03:07,-69.357017517,43.71
2004-05-04 04:07,-69.357048035,43.71
2004-05-04 05:07,-69.357017517,43.71
2004-05-04 06:07,-69.356964111,43.71
2004-05-04 07:07,-69.357048035,43.71
2004-05-04 08:07,-69.357032776,43.71
2004-05-04 09:07,-69.356933594,43.71
2004-05-04 10:07,-69.357101440,43.71
2004-05-04 11:07,-69.357063293,43.71
2004-05-04 12:07,-69.356719971,43.71
2004-05-04 13:07,-69.356666565,43.71
2004-05-04 14:07,-69.356849670,43.71
2004-05-04 15:07,-69.356903076,43.71
2004-05-04 16:07,-69.357017517,43.71
2004-05-04 17:07,-69.357116699,43.71
2004-05-04 18:07,-69.357032776,43.71
2004-05-04 19:07,-69.357063293,43.71
2004-05-04 20:07,-69.357017517,43.71
2004-05-04 21:07,-69.357048035,43.71
2004-05-04 22:07,-69.356781006,43.71
2004-05-04 23:07,-69.356819153,43.71
2004-05-05 00:07,-69.356864929,43.71
2004-05-05 01:07,-69.356987000,43.71
2004-05-05 02:07,-69.357017517,43.71
2004-05-05 03:07,-69.357116699,43.71
2004-05-05 04:07,-69.357116699,43.71
2004-05-05 05:07,-69.357116699,43.71
2004-05-05 06:07,-69.357002258,43.71
2004-05-05 07:07,-69.356948853,43.71
2004-05-05 08:07,-69.356880188,43.71
2004-05-05 09:07,-69.356498718,43.71
2004-05-05 10:07,-69.356765747,43.71
2004-05-05 11:07,-69.356864929,43.71
2004-05-05 12:07,-69.356819153,43.71
2004-05-05 13:07,-69.356933594,43.71
2004-05-05 14:07,-69.357002258,43.71
2004-05-05 15:07,-69.357002258,43.71
2004-05-05 16:07,-69.357032776,43.71
2004-05-05 17:07,-69.357002258,43.71
2004-05-05 18:07,-69.357086182,43.71
2004-05-05 19:07,-69.357086182,43.71
2004-05-05 20:07,-69.357017517,43.71
2004-05-05 21:07,-69.357032776,43.71
2004-05-05 22:07,-69.356948853,43.71
2004-05-05 23:07,-69.357002258,43.71
2004-05-06 00:07,-69.357032776,43.71
2004-05-06 01:07,-69.356849670,43.71
2004-05-06 02:07,-69.356903076,43.71
2004-05-06 03:07,-69.356933594,43.71
2004-05-06 04:07,-69.356918335,43.71
2004-05-06 05:07,-69.356880188,43.71
2004-05-06 06:07,-69.356933594,43.71
2004-05-06 07:07,-69.356948853,43.71
2004-05-06 08:07,-69.356903076,43.71
2004-05-06 09:07,-69.357017517,43.71
2004-05-06 10:07,-69.357002258,43.71
2004-05-06 11:07,-69.356948853,43.71
2004-05-06 12:07,-69.356987000,43.71
2004-05-06 13:07,-69.357002258,43.71
2004-05-06 14:07,-69.357032776,43.71
2004-05-06 15:07,-69.357101440,43.71
2004-05-06 16:07,-69.357086182,43.71
2004-05-06 17:07,-69.357002258,43.71
2004-05-06 18:07,-69.356964111,43.71
2004-05-06 19:07,-69.356903076,43.71
2004-05-06 20:07,-69.356819153,43.71
2004-05-06 21:07,-69.356765747,43.71
2004-05-06 22:07,-69.356735229,43.71
2004-05-06 23:07,-69.356796265,43.71
2004-05-07 00:07,-69.356864929,43.71
2004-05-07 01:07,-69.356834412,43.71
2004-05-07 02:07,-69.356903076,43.71
2004-05-07 03:07,-69.356903076,43.71
2004-05-07 04:07,-69.356864929,43.71
2004-05-07 05:07,-69.356819153,43.71
2004-05-07 06:07,-69.356834412,43.71
2004-05-07 07:07,-69.356765747,43.71
2004-05-07 08:07,-69.356750488,43.71
2004-05-07 09:07,-69.356819153,43.71
2004-05-07 10:07,-69.356719971,43.71
2004-05-07 11:07,-69.356651306,43.71
2004-05-07 12:07,-69.356651306,43.71
2004-05-07 13:07,-69.356651306,43.71
2004-05-07 14:07,-69.356719971,43.71
2004-05-07 15:07,-69.356719971,43.71
2004-05-07 16:07,-69.356796265,43.71
2004-05-07 17:07,-69.356849670,43.71
2004-05-07 18:07,-69.356964111,43.71
2004-05-07 19:07,-69.357002258,43.71
2004-05-07 20:07,-69.357032776,43.71
2004-05-07 21:07,-69.356864929,43.71
2004-05-07 22:07,-69.356903076,43.71
2004-05-07 23:07,-69.356880188,43.71
2004-05-08 00:07,-69.356834412,43.71
2004-05-08 01:07,-69.356948853,43.71
2004-05-08 02:07,-69.356918335,43.71
2004-05-08 03:07,-69.357002258,43.71
2004-05-08 04:07,-69.357017517,43.71
2004-05-08 05:07,-69.357231140,43.71
2004-05-08 06:07,-69.357215881,43.71
2004-05-08 07:07,-69.357246399,43.71
2004-05-08 08:07,-69.357185364,43.71
2004-05-08 09:07,-69.357086182,43.71
2004-05-08 10:07,-69.357131958,43.71
2004-05-08 11:07,-69.357116699,43.71
2004-05-08 12:07,-69.357002258,43.71
2004-05-08 13:07,-69.356948853,43.71
2004-05-08 14:07,-69.356918335,43.71
2004-05-08 15:07,-69.356864929,43.71
2004-05-08 16:07,-69.356948853,43.71
2004-05-08 17:07,-69.356864929,43.71
2004-05-08 18:07,-69.356750488,43.71
2004-05-08 19:07,-69.356719971,43.71
2004-05-08 20:07,-69.356636047,43.71
2004-05-08 21:07,-69.356582642,43.71
2004-05-08 22:07,-69.356567383,43.71
2004-05-08 23:07,-69.356567383,43.71
2004-05-09 00:07,-69.356552124,43.71
2004-05-09 01:07,-69.356613159,43.71
2004-05-09 02:07,-69.356735229,43.71
2004-05-09 03:07,-69.356796265,43.71
2004-05-09 04:07,-69.356834412,43.71
2004-05-09 05:07,-69.356864929,43.71
2004-05-09 06:07,-69.356987000,43.71
2004-05-09 07:07,-69.356918335,43.71
2004-05-09 08:07,-69.356903076,43.71
2004-05-09 09:07,-69.356933594,43.71
2004-05-09 10:07,-69.356880188,43.71
2004-05-09 11:07,-69.356781006,43.71
2004-05-09 12:07,-69.356735229,43.71
2004-05-09 13:07,-69.356735229,43.71
2004-05-09 14:07,-69.356697083,43.71
2004-05-09 15:07,-69.356735229,43.71
2004-05-09 16:07,-69.356750488,43.71
2004-05-09 17:07,-69.356719971,43.71
2004-05-09 18:07,-69.356750488,43.71
2004-05-09 19:07,-69.356750488,43.71
2004-05-09 20:07,-69.356819153,43.71
2004-05-09 21:07,-69.356834412,43.71
2004-05-09 22:07,-69.356796265,43.71
2004-05-09 23:07,-69.356750488,43.71
2004-05-10 00:07,-69.356719971,43.71
2004-05-10 01:07,-69.356719971,43.71
2004-05-10 02:07,-69.356834412,43.71
2004-05-10 03:07,-69.356864929,43.71
2004-05-10 04:07,-69.356933594,43.71
2004-05-10 05:07,-69.356987000,43.71
2004-05-10 06:07,-69.357032776,43.71
2004-05-10 07:07,-69.357170105,43.71
2004-05-10 08:07,-69.357315063,43.71
2004-05-10 09:07,-69.357315063,43.71
2004-05-10 10:07,-69.357315063,43.71
2004-05-10 11:07,-69.357299805,43.71
2004-05-10 12:07,-69.357246399,43.71
2004-05-10 13:07,-69.357215881,43.71
2004-05-10 14:07,-69.357269287,43.71
2004-05-10 15:07,-69.357231140,43.71
2004-05-10 16:07,-69.357284546,43.71
2004-05-10 17:07,-69.357246399,43.71
2004-05-10 18:07,-69.357231140,43.71
2004-05-10 19:07,-69.357231140,43.71
2004-05-10 20:07,-69.357215881,43.71
2004-05-10 21:07,-69.357200623,43.71
2004-05-10 22:07,-69.357185364,43.71
2004-05-10 23:07,-69.357170105,43.71
2004-05-11 00:07,-69.357200623,43.71
2004-05-11 01:07,-69.357299805,43.71
2004-05-11 02:07,-69.357284546,43.71
2004-05-11 03:07,-69.357231140,43.71
2004-05-11 04:07,-69.357246399,43.71
2004-05-11 05:07,-69.357215881,43.71
2004-05-11 06:07,-69.357246399,43.71
2004-05-11 07:07,-69.357185364,43.71
2004-05-11 08:07,-69.357147217,43.71
2004-05-11 09:07,-69.357063293,43.71
2004-05-11 10:07,-69.357101440,43.71
2004-05-11 11:07,-69.357131958,43.71
2004-05-11 12:07,-69.357116699,43.71
2004-05-11 13:07,-69.357048035,43.71
2004-05-11 14:07,-69.357017517,43.71
2004-05-11 15:07,-69.357048035,43.71
2004-05-11 16:07,-69.357116699,43.71
2004-05-11 17:07,-69.357116699,43.71
2004-05-11 18:07,-69.357032776,43.71
2004-05-11 19:07,-69.357063293,43.71
2004-05-11 20:07,-69.357116699,43.71
2004-05-11 21:07,-69.357086182,43.71
2004-05-11 22:07,-69.357048035,43.71
2004-05-11 23:07,-69.357032776,43.71
2004-05-12 00:07,-69.357116699,43.71
2004-05-12 01:07,-69.357101440,43.71
2004-05-12 02:07,-69.357185364,43.71
2004-05-12 03:07,-69.357147217,43.71
2004-05-12 04:07,-69.357200623,43.71
2004-05-12 05:07,-69.357200623,43.71
2004-05-12 06:07,-69.357215881,43.71
2004-05-12 07:07,-69.357246399,43.71
2004-05-12 08:07,-69.357215881,43.71
2004-05-12 09:07,-69.357185364,43.71
2004-05-12 10:07,-69.357185364,43.71
2004-05-12 11:07,-69.357185364,43.71
2004-05-12 12:07,-69.357200623,43.71
2004-05-12 13:07,-69.357170105,43.71
2004-05-12 14:07,-69.357200623,43.71
2004-05-12 15:07,-69.357185364,43.71
2004-05-12 16:07,-69.357200623,43.71
2004-05-12 17:07,-69.357215881,43.71
2004-05-12 18:07,-69.357131958,43.71
2004-05-12 19:07,-69.357101440,43.71
2004-05-12 20:07,-69.357116699,43.71
2004-05-12 21:07,-69.357131958,43.71
2004-05-12 22:07,-69.357185364,43.71
2004-05-12 23:07,-69.357147217,43.71
2004-05-13 00:07,-69.357147217,43.71
2004-05-13 01:07,-69.357185364,43.71
2004-05-13 02:07,-69.357200623,43.71
2004-05-13 03:07,-69.357215881,43.71
2004-05-13 04:07,-69.357246399,43.71
2004-05-13 05:07,-69.357398987,43.71
2004-05-13 06:07,-69.357467651,43.71
2004-05-13 07:07,-69.357536316,43.71
2004-05-13 08:07,-69.357467651,43.71
2004-05-13 09:07,-69.357498169,43.71
2004-05-13 10:07,-69.357551575,43.71
2004-05-13 11:07,-69.357498169,43.71
2004-05-13 12:07,-69.357482910,43.71
2004-05-13 13:07,-69.357498169,43.71
2004-05-13 14:07,-69.357452393,43.71
2004-05-13 15:07,-69.357414246,43.71
2004-05-13 16:07,-69.357437134,43.71
2004-05-13 17:07,-69.357467651,43.71
2004-05-13 18:07,-69.357467651,43.71
2004-05-13 19:07,-69.357414246,43.71
2004-05-13 20:07,-69.357414246,43.71
2004-05-13 21:07,-69.357284546,43.71
2004-05-13 22:07,-69.357368469,43.71
2004-05-13 23:07,-69.357414246,43.71
2004-05-14 00:07,-69.357398987,43.71
2004-05-14 01:07,-69.357414246,43.71
2004-05-14 02:07,-69.357368469,43.71
2004-05-14 03:07,-69.357353210,43.71
2004-05-14 04:07,-69.357368469,43.71
2004-05-14 05:07,-69.357383728,43.71
2004-05-14 06:07,-69.357315063,43.71
2004-05-14 07:07,-69.357131958,43.71
2004-05-14 08:07,-69.356933594,43.71
2004-05-14 09:07,-69.357017517,43.71
2004-05-14 10:07,-69.357147217,43.71
2004-05-14 11:07,-69.357215881,43.71
2004-05-14 12:07,-69.357269287,43.71
2004-05-14 13:07,-69.357315063,43.71
2004-05-14 14:07,-69.357284546,43.71
2004-05-14 15:07,-69.357284546,43.71
2004-05-14 16:07,-69.357284546,43.71
2004-05-14 17:07,-69.357330322,43.71
2004-05-14 18:07,-69.357330322,43.71
2004-05-14 19:07,-69.357246399,43.71
2004-05-14 20:07,-69.357131958,43.71
2004-05-14 21:07,-69.357131958,43.71
2004-05-14 22:07,-69.357170105,43.71
2004-05-14 23:07,-69.357215881,43.71
2004-05-15 00:07,-69.357200623,43.71
2004-05-15 01:07,-69.357185364,43.71
2004-05-15 02:07,-69.357200623,43.71
2004-05-15 03:07,-69.357231140,43.71
2004-05-15 04:07,-69.357231140,43.71
2004-05-15 05:07,-69.357231140,43.71
2004-05-15 06:07,-69.357330322,43.71
2004-05-15 07:07,-69.357368469,43.71
2004-05-15 08:07,-69.357269287,43.71
2004-05-15 09:07,-69.357116699,43.71
2004-05-15 10:07,-69.357086182,43.71
2004-05-15 11:07,-69.356987000,43.71
2004-05-15 12:07,-69.357048035,43.71
2004-05-15 13:07,-69.357048035,43.71
2004-05-15 14:07,-69.357116699,43.71
2004-05-15 15:07,-69.357185364,43.71
2004-05-15 16:07,-69.357086182,43.71
2004-05-15 17:07,-69.357101440,43.71
2004-05-15 18:07,-69.356964111,43.71
2004-05-15 19:07,-69.357017517,43.71
2004-05-15 20:07,-69.357002258,43.71
2004-05-15 21:07,-69.356933594,43.71
2004-05-15 22:07,-69.356903076,43.71
2004-05-15 23:07,-69.356880188,43.71
2004-05-16 00:07,-69.356681824,43.71
2004-05-16 01:07,-69.356735229,43.71
2004-05-16 02:07,-69.356750488,43.71
2004-05-16 03:07,-69.356864929,43.71
2004-05-16 04:07,-69.356864929,43.71
2004-05-16 05:07,-69.357002258,43.71
2004-05-16 06:07,-69.357017517,43.71
2004-05-16 07:07,-69.357101440,43.71
2004-05-16 08:07,-69.357170105,43.71
2004-05-16 09:07,-69.357215881,43.71
2004-05-16 10:07,-69.357170105,43.71
2004-05-16 11:07,-69.357315063,43.71
2004-05-16 12:07,-69.357414246,43.71
2004-05-16 13:07,-69.357383728,43.71
2004-05-16 14:07,-69.357414246,43.71
2004-05-16 15:07,-69.357437134,43.71
2004-05-16 16:07,-69.357368469,43.71
2004-05-16 17:07,-69.357269287,43.71
2004-05-16 18:07,-69.357269287,43.71
2004-05-16 19:07,-69.357231140,43.71
2004-05-16 20:07,-69.357284546,43.71
2004-05-16 21:07,-69.357299805,43.71
2004-05-16 22:07,-69.357246399,43.71
2004-05-16 23:07,-69.357284546,43.71
2004-05-17 00:07,-69.357284546,43.71
2004-05-17 01:07,-69.357215881,43.71
2004-05-17 02:07,-69.357231140,43.71
2004-05-17 03:07,-69.357200623,43.71
2004-05-17 04:07,-69.357231140,43.71
2004-05-17 05:07,-69.357215881,43.71
2004-05-17 06:07,-69.357200623,43.71
2004-05-17 07:07,-69.357200623,43.71
2004-05-17 08:07,-69.357185364,43.71
2004-05-17 09:07,-69.357246399,43.71
2004-05-17 10:07,-69.357200623,43.71
2004-05-17 11:07,-69.357185364,43.71
2004-05-17 12:07,-69.357185364,43.71
2004-05-17 13:07,-69.357200623,43.71
2004-05-17 14:07,-69.357170105,43.71
2004-05-17 15:07,-69.357170105,43.71
2004-05-17 16:07,-69.357200623,43.71
2004-05-17 17:07,-69.357147217,43.71
2004-05-17 18:07,-69.357131958,43.71
2004-05-17 19:07,-69.357185364,43.71
2004-05-17 20:07,-69.357147217,43.71
2004-05-17 21:07,-69.357131958,43.71
2004-05-17 22:07,-69.357032776,43.71
2004-05-17 23:07,-69.357032776,43.71
2004-05-18 00:07,-69.357048035,43.71
2004-05-18 01:07,-69.357101440,43.71
2004-05-18 02:07,-69.357086182,43.71
2004-05-18 03:07,-69.357017517,43.71
2004-05-18 04:07,-69.357002258,43.71
2004-05-18 05:07,-69.357101440,43.71
2004-05-18 06:07,-69.357048035,43.71
2004-05-18 07:07,-69.357048035,43.71
2004-05-18 08:07,-69.357017517,43.71
2004-05-18 09:07,-69.357048035,43.71
2004-05-18 10:07,-69.357063293,43.71
2004-05-18 11:07,-69.357086182,43.71
2004-05-18 12:07,-69.357017517,43.71
2004-05-18 13:07,-69.356964111,43.71
2004-05-18 14:07,-69.357017517,43.71
2004-05-18 15:07,-69.356987000,43.71
2004-05-18 16:07,-69.357017517,43.71
2004-05-18 17:07,-69.357032776,43.71
2004-05-18 18:07,-69.357002258,43.71
2004-05-18 19:07,-69.356964111,43.71
2004-05-18 20:07,-69.356933594,43.71
2004-05-18 21:07,-69.356880188,43.71
2004-05-18 22:07,-69.356903076,43.71
2004-05-18 23:07,-69.356933594,43.71
2004-05-19 00:07,-69.356880188,43.71
2004-05-19 01:07,-69.356948853,43.71
2004-05-19 02:07,-69.356933594,43.71
2004-05-19 03:07,-69.356933594,43.71
2004-05-19 04:07,-69.356918335,43.71
2004-05-19 05:07,-69.356964111,43.71
2004-05-19 06:07,-69.357032776,43.71
2004-05-19 07:07,-69.357063293,43.71
2004-05-19 08:07,-69.357147217,43.71
2004-05-19 09:07,-69.357131958,43.71
2004-05-19 10:07,-69.357231140,43.71
2004-05-19 11:07,-69.357131958,43.71
2004-05-19 12:07,-69.357147217,43.71
2004-05-19 13:07,-69.357231140,43.71
2004-05-19 14:07,-69.357284546,43.71
2004-05-19 15:07,-69.357330322,43.71
2004-05-19 16:07,-69.357284546,43.71
2004-05-19 17:07,-69.357269287,43.71
2004-05-19 18:07,-69.357330322,43.71
2004-05-19 19:07,-69.357215881,43.71
2004-05-19 20:07,-69.357231140,43.71
2004-05-19 21:07,-69.357131958,43.71
2004-05-19 22:07,-69.357131958,43.71
2004-05-19 23:07,-69.357116699,43.71
2004-05-20 00:07,-69.357086182,43.71
2004-05-20 01:07,-69.357131958,43.71
2004-05-20 02:07,-69.357147217,43.71
2004-05-20 03:07,-69.357185364,43.71
2004-05-20 04:07,-69.357170105,43.71
2004-05-20 05:07,-69.357185364,43.71
2004-05-20 06:07,-69.357231140,43.71
2004-05-20 07:07,-69.357246399,43.71
2004-05-20 08:07,-69.357131958,43.71
2004-05-20 09:07,-69.357215881,43.71
2004-05-20 10:07,-69.357231140,43.71
2004-05-20 11:07,-69.357215881,43.71
2004-05-20 12:07,-69.357246399,43.71
2004-05-20 13:07,-69.357131958,43.71
2004-05-20 14:07,-69.357101440,43.71
2004-05-20 15:07,-69.357170105,43.71
2004-05-20 16:07,-69.357101440,43.71
2004-05-20 17:07,-69.357101440,43.71
2004-05-20 18:07,-69.357116699,43.71
2004-05-20 19:07,-69.357116699,43.71
2004-05-20 20:07,-69.357116699,43.71
2004-05-20 21:07,-69.357170105,43.71
2004-05-20 22:07,-69.357246399,43.71
2004-05-20 23:07,-69.357200623,43.71
2004-05-21 00:07,-69.357170105,43.71
2004-05-21 01:07,-69.357131958,43.71
2004-05-21 02:07,-69.357048035,43.71
2004-05-21 03:07,-69.357032776,43.71
2004-05-21 04:07,-69.357063293,43.71
2004-05-21 05:07,-69.357063293,43.71
2004-05-21 06:07,-69.356964111,43.71
2004-05-21 07:07,-69.356948853,43.71
2004-05-21 08:07,-69.356987000,43.71
2004-05-21 09:07,-69.356880188,43.71
2004-05-21 10:07,-69.356834412,43.71
2004-05-21 11:07,-69.356796265,43.71
2004-05-21 12:07,-69.356864929,43.71
2004-05-21 13:07,-69.356849670,43.71
2004-05-21 14:07,-69.356918335,43.71
2004-05-21 15:07,-69.357017517,43.71
2004-05-21 16:07,-69.357086182,43.71
2004-05-21 17:07,-69.357215881,43.71
2004-05-21 18:07,-69.357246399,43.71
2004-05-21 19:07,-69.357246399,43.71
2004-05-21 20:07,-69.357269287,43.71
2004-05-21 21:07,-69.357269287,43.71
2004-05-21 22:07,-69.357215881,43.71
2004-05-21 23:07,-69.357185364,43.71
2004-05-22 00:07,-69.357215881,43.71
2004-05-22 01:07,-69.357131958,43.71
2004-05-22 02:07,-69.357116699,43.71
2004-05-22 03:07,-69.357147217,43.71
2004-05-22 04:07,-69.357170105,43.71
2004-05-22 05:07,-69.357200623,43.71
2004-05-22 06:07,-69.357215881,43.71
2004-05-22 07:07,-69.357231140,43.71
2004-05-22 08:07,-69.357315063,43.71
2004-05-22 09:07,-69.357330322,43.71
2004-05-22 10:07,-69.357353210,43.71
2004-05-22 11:07,-69.357452393,43.71
2004-05-22 12:07,-69.357513428,43.71
2004-05-22 13:07,-69.357536316,43.71
2004-05-22 14:07,-69.357498169,43.71
2004-05-22 15:07,-69.357437134,43.71
2004-05-22 16:07,-69.357498169,43.71
2004-05-22 17:07,-69.357482910,43.71
2004-05-22 18:07,-69.357482910,43.71
2004-05-22 19:07,-69.357482910,43.71
2004-05-22 20:07,-69.357452393,43.71
2004-05-22 21:07,-69.357482910,43.71
2004-05-22 22:07,-69.357498169,43.71
2004-05-22 23:07,-69.357467651,43.71
2004-05-23 00:07,-69.357498169,43.71
2004-05-23 01:07,-69.357513428,43.71
2004-05-23 02:07,-69.357482910,43.71
2004-05-23 03:07,-69.357482910,43.71
2004-05-23 04:07,-69.357452393,43.71
2004-05-23 05:07,-69.357414246,43.71
2004-05-23 06:07,-69.357414246,43.71
2004-05-23 07:07,-69.357452393,43.71
2004-05-23 08:07,-69.357437134,43.71
2004-05-23 09:07,-69.357437134,43.71
2004-05-23 10:07,-69.357467651,43.71
2004-05-23 11:07,-69.357452393,43.71
2004-05-23 12:07,-69.357452393,43.71
2004-05-23 13:07,-69.357330322,43.71
2004-05-23 14:07,-69.357353210,43.71
2004-05-23 15:07,-69.357048035,43.71
2004-05-23 16:07,-69.357185364,43.71
2004-05-23 17:07,-69.357284546,43.71
2004-05-23 18:07,-69.357368469,43.71
2004-05-23 19:07,-69.357299805,43.71
2004-05-23 20:07,-69.357353210,43.71
2004-05-23 21:07,-69.357368469,43.71
2004-05-23 22:07,-69.357315063,43.71
2004-05-23 23:07,-69.357368469,43.71
2004-05-24 00:07,-69.357383728,43.71
2004-05-24 01:07,-69.357398987,43.71
2004-05-24 02:07,-69.357368469,43.71
2004-05-24 03:07,-69.357383728,43.71
2004-05-24 04:07,-69.357315063,43.71